Location: State Camp
(41.2367°N, 77.7828°W)
Time: 08:02:32
(UTC-04:00)

ADEOS Rocket - Visible Passes

Search period start: 22 October 2017 00:00
Search period end: 01 November 2017 00:00
Orbit: 859 x 1306 km, 98.8° (Epoch: 21 October)

Date Brightness Start Highest point End Pass type
(mag) Time Alt. Az. Time Alt. Az. Time Alt. Az.
22 Oct 5.9 02:01:49 10° NNE 02:02:18 12° NNE 02:02:18 12° NNE visible
22 Oct 5.6 03:48:04 10° N 03:49:15 14° NNW 03:49:15 14° NNW visible
23 Oct 5.7 02:58:28 10° N 02:59:34 15° N 02:59:34 15° N visible
24 Oct 6.0 02:09:25 10° NNE 02:09:54 12° NNE 02:09:54 12° NNE visible
24 Oct 5.6 03:55:55 10° N 03:56:50 13° NNW 03:56:50 13° NNW visible
25 Oct 5.7 03:06:12 10° N 03:07:11 14° N 03:07:11 14° N visible
26 Oct 6.0 02:17:04 10° NNE 02:17:30 12° NNE 02:17:30 12° NNE visible
26 Oct 5.7 04:03:48 10° N 04:04:27 12° NNW 04:04:27 12° NNW visible
27 Oct 5.7 03:13:56 10° N 03:14:46 14° N 03:14:46 14° N visible
28 Oct 6.0 02:24:44 10° NNE 02:25:06 12° NNE 02:25:06 12° NNE visible
28 Oct 5.7 04:11:44 10° NNW 04:12:02 11° NNW 04:12:02 11° NNW visible
29 Oct 5.8 03:21:44 10° N 03:22:22 13° N 03:22:22 13° N visible
30 Oct 6.0 02:32:25 10° N 02:32:42 11° N 02:32:42 11° N visible
31 Oct 5.8 03:29:32 10° N 03:29:58 12° N 03:29:58 12° N visible
